Location: Songkhla
(7.2000°N, 100.6000°E)
Time: 20:38:28
(UTC+07:00)

ISS - Pass Details

Date: 21 April 2026
Orbit: 414 x 424 km, 51.6° (Epoch: 19 May)

Event Time Altitude Azimuth Distance (km) Brightness Sun altitude
Rises 01:41:23 0° 218° (SW) 2,337 - -61.7°
Reaches altitude 10° 01:43:28 10° 220° (SW) 1,476 - -61.3°
Maximum altitude 01:46:46 75° 305° (NW) 428 - -60.6°
Drops below altitude 10° 01:50:05 10° 32° (NNE) 1,478 - -60.0°
Sets 01:52:11 0° 34° (NNE) 2,341 - -59.6°
